Regional Weather Roundup
Issued by NWS Goodland, KS

Home | Current Version | Previous Version | Text Only | Print | Product List | Glossary Off
Versions: 1 2 3 4 5 6 7 8 9 10 11 12 13 14 15 16 17 18 19 20 21 22 23 24 25 26 27 28 29 30 31 32 33 34 35 36 37 38 39 40 41 42 43 44 45 46 47 48 49 50

000
ASUS43 KGLD 281908
RWRGLD

GOODLAND FORECAST AREA HOURLY WEATHER ROUNDUP
NATIONAL WEATHER SERVICE GOODLAND KS
100 PM MDT MON JUL 28 2014

...OFFICIAL OBSERVATIONS...

CITY           SKY/WX    TMP DP  RH WIND       PRES   REMARKS
GOODLAND KS    SUNNY    N/A N/A N/A MISG      30.31F
HILL CITY KS   SUNNY     84  57  39 VRB7      30.27F
IMPERIAL NEB   SUNNY     85  56  37 SE13G20   30.28F
MCCOOK NEB     SUNNY     84  57  39 E12G17    30.28F
AKRON CO       CLOUDY    83  54  36 SE14      30.31F
BURLINGTON CO  PTSUNNY   78  55  44 S16G23    30.34F
LIMON CO       CLOUDY    75  57  53 S17G25    30.37F
$$

...UNOFFICIAL OBSERVATIONS...

CITY           SKY/WX    TMP DP  RH WIND       PRES   REMARKS
COLBY KS       SUNNY     84  61  45 S10G21    30.29F HAZE
LENORA KS        N/A     81  32  17 MISG        N/A
NORTON KS      SUNNY     86  50  28 SE10      30.27F
OBERLIN KS     FAIR      86  52  30 E10       30.27F
ST FRANCIS KS  SUNNY     84  45  24 S17       30.28F
TRIBUNE KS     PTSUNNY   73 N/A N/A S12       30.34F
WAKEENEY KS      N/A     85  50  29 MISG        N/A
TRENTON NEB      N/A     86  32  14 S13         N/A
KIT CARSON CO    N/A     80  57  44 N16G25      N/A
WRAY CO          N/A     88  55  33 S8G17     30.28F
YUMA CO          N/A     84  60  43 SE12        N/A
$$



USA.gov is the U.S. government's official web portal to all federal, state and local government web resources and services.